Voltar ao catálogo

ARIANE 44LP DEB

LostHEO
NORAD 26794·DEBRIS·🇫🇷 France

Lançado Mar 2, 1991 de Guiana Space Centre

Loading…

Próximas Passagens (próximas 24 horas)

TLE

ObsoletoSource: Space-Track

Época: Jun 1, 2026, 14:15 UTC

1 26794U 91015L   26152.59411734  .00000097  00000-0  25513-2 0  9998
2 26794   7.9193  25.7471 6615430 218.0130 348.7944  2.89506314127709

Acompanhe ARIANE 44LP DEB em tempo real com AllMySat

Download on the App Store